Location: Brownlee
(50.7397°N, 106.0159°W)
Time: 08:35:37
(UTC+00:00)

Envisat - Pass Details

Date: 04 December 2022
Orbit: 763 x 765 km, 98.2° (Epoch: 28 January)

Event Time Altitude Azimuth Distance (km) Brightness Sun altitude
Rises 12:01:36 0° 11° (N) 3,247 6.3 -25.3°
Reaches altitude 10° 12:03:57 10° 6° (N) 2,316 5.5 -24.9°
Enters shadow 12:06:52 33° 349° (N) 1,285 4.0 -24.4°
